Date String (YYYY-MM-DD hh:mm:ss) UTC,Instrument flags,Ambient pressure (hPa),Sample flow (lpm),Bypass flow (lpm),Sample temperature (°C),Ambient temperature (°C),ASC tube jacket temperature (°C),LED temperature (°C),Box temperature (°C),Sample RH (%),Span deviation,Mass concentration (μg/m³),Mass concentration (μg/m³),Mass concentration (μg/m³)
DateTimeUTC,F1_M11,P_M11,Q1_M11,Q2_M11,T1_M11,T2_M11,T3_M11,T4_M11,T5_M11,U1_M11,ZSPAN_M11,X2_M11,X0_M11,X1_M11
2022-09-02 01:00:00,,0825.6,4.99,0.00,29.4,27.3,00.0,38.0,31.1,16.1,0000.0,0006.30,0014.28,0005.67
2022-09-02 01:01:00,,0825.6,5.00,0.00,29.4,27.6,00.0,38.0,31.2,15.9,0000.0,0006.31,0014.44,0005.67
2022-09-02 01:02:00,,0825.6,5.00,0.00,29.4,27.9,00.0,38.1,31.3,16.0,0000.0,0006.30,0014.24,0005.66
2022-09-02 01:03:00,,0825.5,5.01,0.00,29.5,28.1,00.0,38.1,31.4,16.4,0000.0,0006.31,0013.22,0005.66
2022-09-02 01:04:00,,0825.6,5.01,0.00,29.5,28.3,00.0,38.1,31.4,16.6,0000.0,0006.31,0013.36,0005.66
2022-09-02 01:05:00,,0825.6,4.98,0.00,29.6,28.4,00.0,38.1,31.5,16.8,0000.0,0006.34,0013.27,0005.67
2022-09-02 01:06:00,,0825.6,5.01,0.00,29.6,27.4,00.0,38.1,31.4,17.0,0000.0,0006.35,0012.84,0005.66
2022-09-02 01:07:00,,0825.5,5.00,0.00,29.5,26.5,00.0,38.1,31.3,17.1,0000.0,0006.32,0012.90,0005.66
2022-09-02 01:08:00,,0825.5,5.00,0.00,29.5,26.6,00.0,38.1,31.3,17.2,0000.0,0006.31,0012.90,0005.66
2022-09-02 01:09:00,,0825.6,5.00,0.00,29.4,26.8,00.0,38.1,31.2,17.4,0000.0,0006.31,0012.93,0005.66
2022-09-02 01:10:00,,0825.6,5.01,0.00,29.4,27.1,00.0,38.0,31.2,17.6,0000.0,0006.30,0012.02,0005.66
2022-09-02 01:11:00,,0825.6,5.00,0.00,29.4,27.4,00.0,38.0,31.2,17.7,0000.0,0006.27,0011.45,0005.67
2022-09-02 01:12:00,,0825.6,5.00,0.00,29.4,27.7,00.0,38.1,31.3,17.9,0000.0,0006.26,0011.29,0005.67
2022-09-02 01:13:00,,0825.6,5.01,0.00,29.5,28.0,00.0,38.1,31.4,18.0,0000.0,0006.27,0011.58,0005.69
2022-09-02 01:14:00,,0825.6,5.01,0.00,29.5,28.2,00.0,38.1,31.4,18.0,0000.0,0006.26,0011.64,0005.68
2022-09-02 01:15:00,,0825.6,5.01,0.00,29.5,28.4,00.0,38.1,31.5,17.9,0000.0,0006.29,0011.45,0005.68
2022-09-02 01:16:00,,0825.6,4.98,0.00,29.6,28.2,00.0,38.2,31.5,17.6,0000.0,0006.32,0011.49,0005.69
2022-09-02 01:17:00,,0825.6,5.01,0.00,29.6,27.0,00.0,38.2,31.4,17.7,0000.0,0006.30,0011.32,0005.68
2022-09-02 01:18:00,,0825.6,5.00,0.00,29.5,26.4,00.0,38.1,31.3,17.8,0000.0,0006.30,0011.91,0005.68
2022-09-02 01:19:00,,0825.6,5.00,0.00,29.5,26.5,00.0,38.1,31.2,17.4,0000.0,0006.32,0013.15,0005.68
2022-09-02 01:20:00,,0825.6,4.99,0.00,29.4,26.8,00.0,38.0,31.1,17.3,0000.0,0006.32,0013.09,0005.68
2022-09-02 01:21:00,,0825.6,5.01,0.00,29.4,27.2,00.0,38.0,31.1,17.2,0000.0,0006.35,0013.56,0005.68
2022-09-02 01:22:00,,0825.6,5.00,0.00,29.4,27.5,00.0,38.0,31.2,17.1,0000.0,0006.37,0013.60,0005.68
2022-09-02 01:23:00,,0825.5,5.00,0.00,29.4,27.8,00.0,38.1,31.3,17.1,0000.0,0006.37,0013.52,0005.68
2022-09-02 01:24:00,,0825.6,5.00,0.00,29.4,28.0,00.0,38.1,31.3,16.8,0000.0,0006.43,0013.25,0005.68
2022-09-02 01:25:00,,0825.6,5.01,0.00,29.5,28.2,00.0,38.1,31.4,16.7,0000.0,0006.43,0013.18,0005.68
2022-09-02 01:26:00,,0825.6,4.99,0.00,29.5,28.4,00.0,38.1,31.5,16.6,0000.0,0006.42,0013.40,0005.67
2022-09-02 01:27:00,,0825.6,5.01,0.00,29.6,28.4,00.0,38.2,31.5,16.7,0000.0,0006.35,0013.63,0005.66
2022-09-02 01:28:00,,0825.6,4.99,0.00,29.6,27.3,00.0,38.2,31.4,16.6,0000.0,0006.32,0014.25,0005.66
2022-09-02 01:29:00,,0825.6,5.01,0.00,29.5,26.4,00.0,38.1,31.3,16.7,0000.0,0006.33,0014.67,0005.66
2022-09-02 01:30:00,,0825.6,5.00,0.00,29.5,26.5,00.0,38.1,31.3,16.7,0000.0,0006.29,0014.97,0005.65
2022-09-02 01:31:00,,0825.6,5.00,0.00,29.4,26.8,00.0,38.1,31.2,16.7,0000.0,0006.26,0015.35,0005.65
2022-09-02 01:32:00,,0825.6,4.99,0.00,29.4,27.1,00.0,38.0,31.2,16.6,0000.0,0006.24,0015.06,0005.65
2022-09-02 01:33:00,,0825.6,5.01,0.00,29.4,27.4,00.0,38.1,31.2,16.5,0000.0,0006.27,0015.25,0005.65
2022-09-02 01:34:00,,0825.6,5.00,0.00,29.4,27.7,00.0,38.1,31.3,16.6,0000.0,0006.29,0015.57,0005.65
2022-09-02 01:35:00,,0825.6,5.00,0.00,29.4,28.0,00.0,38.1,31.4,16.6,0000.0,0006.25,0016.18,0005.66
2022-09-02 01:36:00,,0825.6,5.00,0.00,29.5,28.2,00.0,38.1,31.4,16.6,0000.0,0006.25,0016.62,0005.67
2022-09-02 01:37:00,,0825.6,4.98,0.00,29.5,28.4,00.0,38.1,31.5,16.6,0000.0,0006.25,0017.16,0005.68
2022-09-02 01:38:00,,0825.7,5.01,0.00,29.6,28.5,00.0,38.2,31.5,16.5,0000.0,0006.29,0017.19,0005.70
2022-09-02 01:39:00,,0825.6,5.01,0.00,29.6,28.2,00.0,38.2,31.6,16.5,0000.0,0006.33,0017.00,0005.70
2022-09-02 01:40:00,,0825.6,5.01,0.00,29.6,26.9,00.0,38.2,31.3,16.5,0000.0,0006.36,0016.07,0005.69
2022-09-02 01:41:00,,0825.6,4.99,0.00,29.5,26.3,00.0,38.1,31.3,16.7,0000.0,0006.40,0014.32,0005.70
2022-09-02 01:42:00,,0825.6,5.01,0.00,29.5,26.5,00.0,38.1,31.2,16.7,0000.0,0006.43,0013.90,0005.72
2022-09-02 01:43:00,,0825.6,5.01,0.00,29.4,26.8,00.0,38.1,31.0,16.8,0000.0,0006.47,0013.91,0005.73
2022-09-02 01:44:00,,0825.7,4.98,0.00,29.4,27.1,00.0,38.0,31.1,16.8,0000.0,0006.48,0014.65,0005.73
2022-09-02 01:45:00,,0825.7,5.01,0.00,29.4,27.4,00.0,38.0,31.2,16.6,0000.0,0006.50,0015.05,0005.73
2022-09-02 01:46:00,,0825.7,4.99,0.00,29.4,27.7,00.0,38.1,31.3,16.6,0000.0,0006.52,0014.52,0005.73
2022-09-02 01:47:00,,0825.7,5.01,0.00,29.4,28.0,00.0,38.1,31.3,16.5,0000.0,0006.54,0013.99,0005.73
2022-09-02 01:48:00,,0825.7,5.01,0.00,29.5,28.2,00.0,38.1,31.4,16.4,0000.0,0006.59,0013.58,0005.72
2022-09-02 01:49:00,,0825.7,4.98,0.00,29.5,28.4,00.0,38.1,31.4,16.3,0000.0,0006.59,0013.53,0005.71
2022-09-02 01:50:00,,0825.7,5.00,0.00,29.6,28.5,00.0,38.1,31.5,16.2,0000.0,0006.61,0013.84,0005.72
2022-09-02 01:51:00,,0825.7,4.99,0.00,29.6,27.8,00.0,38.2,31.5,16.4,0000.0,0006.56,0014.76,0005.73
2022-09-02 01:52:00,,0825.7,5.00,0.00,29.5,26.5,00.0,38.1,31.3,16.4,0000.0,0006.53,0015.09,0005.74
2022-09-02 01:53:00,,0825.7,5.01,0.00,29.5,26.3,00.0,38.1,31.2,16.3,0000.0,0006.50,0015.22,0005.74
2022-09-02 01:54:00,,0825.7,5.00,0.00,29.4,26.5,00.0,38.1,31.2,16.6,0000.0,0006.48,0014.86,0005.75
2022-09-02 01:55:00,,0825.7,5.00,0.00,29.4,26.8,00.0,38.0,31.1,16.7,0000.0,0006.49,0014.23,0005.76
2022-09-02 01:56:00,,0825.7,4.99,0.00,29.4,27.2,00.0,38.0,31.1,16.8,0000.0,0006.49,0013.64,0005.78
2022-09-02 01:57:00,,0825.7,5.00,0.00,29.4,27.5,00.0,38.0,31.2,16.9,0000.0,0006.48,0013.72,0005.79
2022-09-02 01:58:00,,0825.7,5.00,0.00,29.4,27.8,00.0,38.0,31.3,16.9,0000.0,0006.51,0013.93,0005.80
2022-09-02 01:59:00,,0825.7,5.01,0.00,29.4,28.0,00.0,38.1,31.3,16.9,0000.0,0006.52,0013.89,0005.82
